[[{"header":{"parameterUnit":"m.s-1","parameterCategory":1,"la1":30.2991,"la2":30.254,"lo1":-89.0895,"lo2":-89.0444,"dy":0.0017,"dx":0.0017,"nx":28,"ny":28,"refTime":"2025-11-29T03:00:00:Z","depth":0,"parameterNumber":2,"parameterNumberName":"U-component_of_WINDS"},"data":[0,0,0,0,0,0,0,0,0,0,0,0,0,0,0,0,0,0,0,0,0,0,0,0,0,0,0,0,0,0,0,0,0,0,0,0,0,0,0,0,0,0,0,0,0,0,0,0,0,0,0,0,0,0,0,0,0,0,-7.0721,-7.0722,0,-7.078,-7.078,-7.0781,-7.0564,-7.0557,-7.0551,-7.0545,-7.0607,-7.0614,-7.0622,0,0,0,0,0,0,0,0,0,0,0,0,0,-7.0422,-7.0429,-7.0721,-7.0722,-7.0722,-7.078,-7.078,-7.0781,-7.0565,-7.0557,-7.0549,-7.0542,-7.0604,-7.0613,-7.0623,0,0,0,0,0,0,0,0,0,0,0,0,0,-7.0524,-7.0431,-7.0721,-7.0621,-7.0613,-7.0779,-7.078,-7.0781,-7.0567,-7.0557,-7.0547,-7.0538,-7.0601,-7.0613,-7.0624,-7.0889,0,0,-7.0659,-7.0664,0,0,0,0,0,0,0,0,-7.0518,-7.0535,-7.0635,-7.0629,-7.0619,-7.0654,-7.0697,-7.0818,-7.0569,-7.0584,-7.0545,-7.0533,-7.0631,-7.0639,-7.0672,-7.0892,-7.0895,-7.066,-7.0667,-7.0672,-7.0675,0,0,0,0,0,0,0,-7.0511,-7.0531,-7.0744,-7.0637,-7.0627,-7.0574,-7.0578,-7.0719,-7.0661,-7.0582,-7.0567,-7.0576,-7.0624,-7.0661,-7.0671,-7.0896,-7.066,-7.067,-7.0677,-7.0682,-7.1335,-7.1345,0,0,0,0,0,0,-7.0517,-7.0527,-7.0742,-7.0746,-7.0544,-7.0587,-7.0591,-7.0653,-7.0659,-7.0651,-7.0585,-7.0566,-7.0646,-7.0658,-7.0673,-7.0981,-7.0672,-7.0683,-7.0689,-7.1325,-7.1337,-7.1348,0,0,0,0,0,0,-7.0512,-7.0539,-7.074,-7.0632,-7.0654,-7.0603,-7.0674,-7.0659,-7.0695,-7.0661,-7.065,-7.0633,-7.0639,-7.0657,-7.0836,-7.098,-7.0688,-7.0699,-7.1312,-7.1328,-7.1343,-7.1603,0,0,0,0,0,0,-7.0504,-7.0538,-7.0638,-7.0636,-7.066,-7.0903,-7.0683,-7.0668,-7.0716,-7.0692,-7.0703,-7.0695,-7.0633,-7.082,-7.0848,-7.0991,-7.0708,-7.1299,-7.1319,-7.1338,-7.1581,-7.1625,-7.1663,0,0,0,0,0,-7.0494,-7.071,-7.0644,-7.0672,-7.0784,-7.0912,-7.0926,-7.0848,-7.0728,-7.0828,-7.0806,-7.0695,-7.0961,-7.0841,-7.087,-7.1019,-7.1289,-7.1314,-7.1336,-7.1563,-7.1617,-7.1662,0,0,0,0,0,0,-7.0731,-7.0708,-7.0635,-7.0856,-7.0888,-7.0875,-7.0998,-7.0909,-7.0975,-7.095,-7.0852,-7.0857,-7.1054,-7.1054,-7.0921,-7.1275,-7.1104,-7.1135,-7.1267,-7.1318,-7.1358,-7.1352,-7.0717,0,0,0,0,0,-7.0809,-7.0914,-7.0888,-7.1086,-7.1106,-7.1051,-7.1103,-7.1041,-7.107,-7.1082,-7.1072,-7.1105,-7.1195,-7.1257,-7.1339,-7.1581,-7.1579,-7.1698,-7.1739,-7.1773,-7.18,-7.1926,-7.1977,-7.1426,-7.1425,-7.1425,0,0,-7.0971,-7.0972,-7.1044,-7.1134,-7.1151,-7.1261,-7.1063,-7.1189,-7.127,-7.1101,-7.1269,-7.1264,-7.1294,-7.1506,-7.1599,-7.1512,-7.1952,-7.1803,-7.183,-7.1838,-7.1955,-7.2007,-7.2054,-7.1441,-7.1439,-7.1436,0,0,-7.1322,-7.1335,-7.1499,-7.152,-7.1548,-7.1509,-7.155,-7.1551,-7.154,-7.1708,-7.1583,-7.1678,-7.1837,-7.1862,-7.1896,-7.2258,-7.2157,-7.2287,-7.2501,-7.2625,-7.2668,-7.2706,-7.2832,-7.2879,-7.2315,-7.2315,-7.2316,0,-7.152,-7.1681,-7.1595,-7.1729,-7.1772,-7.1624,-7.1789,-7.1814,-7.1869,-7.1901,-7.1804,-7.1999,-7.2009,-7.2223,-7.2311,-7.2345,-7.2386,-7.2284,-7.2669,-7.2706,-7.274,-7.286,-7.2908,-7.2331,-7.2329,-7.2327,-7.2326,0,-7.1922,-7.2036,-7.2166,-7.222,-7.2277,-7.2427,-7.2364,-7.2432,-7.2366,-7.2338,-7.251,-7.2517,-7.2596,-7.2643,-7.258,-7.2849,-7.2794,-7.2686,-7.2511,-7.281,-7.292,-7.2965,-7.2353,-7.2347,-7.2342,-7.2339,0,0,-7.2422,-7.2426,-7.2475,-7.2497,-7.2517,-7.2603,-7.2747,-7.2823,-7.2883,-7.2926,-7.3042,-7.318,-7.3078,-7.3117,-7.3056,-7.3165,-7.3448,-7.3042,-7.3041,-7.3114,-7.3741,-7.3821,-7.3875,-7.3383,-7.3391,-7.3398,-7.3738,0,-7.2763,-7.3006,-7.2933,-7.3177,-7.328,-7.3142,-7.3266,-7.3292,-7.327,-7.3355,-7.333,-7.3428,-7.3289,-7.3311,-7.3413,-7.3392,-7.3572,-7.3367,-7.3488,-7.3493,-7.3481,-7.3933,-7.4017,-7.4337,-7.378,-7.3788,-7.3793,0,-7.3194,-7.3252,-7.3507,-7.3508,-7.3548,-7.3661,-7.3724,-7.3808,-7.3834,-7.381,-7.3854,-7.377,-7.391,-7.3739,-7.3929,-7.3791,-7.3837,-7.3834,-7.3845,-7.385,-7.3659,-7.3948,-7.4438,-7.4485,-7.3861,-7.3855,-7.385,0,-7.3529,-7.3672,-7.3841,-7.3865,-7.3871,-7.3953,-7.396,-7.3977,-7.4027,-7.4084,-7.4115,-7.4189,-7.4228,-7.4286,-7.4224,-7.4105,-7.4423,-7.4247,-7.4406,-7.4408,-7.4476,-7.4472,-7.4978,-7.4513,-7.4512,-7.4511,-7.451,0,-7.3916,-7.4077,-7.3991,-7.4095,-7.427,-7.4186,-7.4362,-7.4353,-7.4369,-7.4469,-7.4356,-7.4452,-7.4365,-7.4454,-7.4407,-7.457,-7.459,-7.4574,-7.4559,-7.4582,-7.4584,-7.4608,-7.4583,-7.4524,-7.4521,-7.4519,-7.4516,0,-7.4318,-7.4268,-7.4443,-7.4435,-7.4437,-7.4566,-7.4559,-7.4655,-7.4625,-7.4753,-7.4778,-7.4732,-7.483,-7.4775,-7.4877,-7.4845,-7.5056,-7.5013,-7.5047,-7.5033,-7.5194,-7.5179,-7.573,-7.5797,-7.5293,-7.5298,-7.5302,0,-7.4567,-7.4686,-7.4691,-7.4749,-7.4763,-7.4859,-7.4909,-7.4832,-7.4889,-7.4928,-7.5019,-7.5108,-7.5173,-7.5337,-7.5313,-7.539,-7.5345,-7.5533,-7.5355,-7.5374,-7.5343,-7.5335,-7.5346,-7.5568,-7.5574,-7.5578,-7.5582,0,-7.5012,-7.4981,-7.5058,-7.5127,-7.519,-7.524,-7.5281,-7.5336,-7.5258,-7.5329,-7.5427,-7.5478,-7.5581,-7.567,-7.5735,-7.5742,-7.565,-7.5639,-7.5679,-7.5702,-7.5715,-7.5707,-7.514,-7.5626,-7.5621,-7.5618,-7.5616,-7.5614,-7.5342,-7.5441,-7.5459,-7.5548,-7.5571,-7.5612,-7.5701,-7.5682,-7.5763,-7.5839,-7.5789,-7.5905,-7.5928,-7.6006,-7.6025,-7.6115,-7.6039,-7.6098,-7.6112,-7.6127,-7.6147,-7.5705,-7.6127,-7.6126,-7.6124,-7.6123,-7.6122,0,-7.5778,-7.5783,-7.5866,-7.5926,-7.5997,-7.5904,-7.5945,-7.6009,-7.6112,-7.6141,-7.6208,-7.6321,-7.6407,-7.639,-7.6467,-7.6542,-7.6501,-7.6565,-7.6556,-7.6559,-7.6212,-7.6168,-7.6596,-7.6596,-7.6596,-7.6596,-7.6595,-7.6595,-7.6013,-7.6174,-7.6146,-7.6318,-7.6321,-7.6433,-7.6464,-7.6501,-7.6523,-7.6654,-7.6724,-7.6712,-7.6722,-7.68,-7.6874,-7.6866,-7.6899,-7.6977,-7.6955,-7.663,-7.6583,-7.6539,-7.6496,-7.6986,-7.6986,-7.7292,-7.7295,-7.7297]},{"header":{"parameterUnit":"m.s-1","parameterCategory":1,"la1":30.2991,"la2":30.254,"lo1":-89.0895,"lo2":-89.0444,"dy":0.0017,"dx":0.0017,"nx":28,"ny":28,"refTime":"2025-11-29T03:00:00:Z","depth":0,"parameterNumber":3,"parameterNumberName":"V-component_of_WINDS"},"data":[0,0,0,0,0,0,0,0,0,0,0,0,0,0,0,0,0,0,0,0,0,0,0,0,0,0,0,0,0,0,0,0,0,0,0,0,0,0,0,0,0,0,0,0,0,0,0,0,0,0,0,0,0,0,0,0,0,0,-0.4291,-0.4291,0,-0.4321,-0.4322,-0.4322,-0.4388,-0.439,-0.4391,-0.4392,-0.4422,-0.4421,-0.4421,0,0,0,0,0,0,0,0,0,0,0,0,0,-0.4286,-0.4286,-0.429,-0.4291,-0.4291,-0.4321,-0.4322,-0.4322,-0.4388,-0.439,-0.4391,-0.4393,-0.4422,-0.4421,-0.4421,0,0,0,0,0,0,0,0,0,0,0,0,0,-0.4299,-0.4285,-0.429,-0.4328,-0.4332,-0.4321,-0.4322,-0.4322,-0.4388,-0.439,-0.4392,-0.4394,-0.4422,-0.4421,-0.4421,-0.4376,0,0,-0.4419,-0.4418,0,0,0,0,0,0,0,0,-0.4298,-0.4299,-0.4322,-0.4325,-0.4329,-0.4353,-0.4331,-0.434,-0.4387,-0.4366,-0.4392,-0.4395,-0.4397,-0.4399,-0.44,-0.4377,-0.4378,-0.4419,-0.4418,-0.4418,-0.4418,0,0,0,0,0,0,0,-0.4297,-0.4298,-0.4303,-0.4322,-0.4327,-0.4342,-0.4346,-0.4333,-0.437,-0.4368,-0.4373,-0.4376,-0.44,-0.44,-0.4401,-0.4379,-0.4419,-0.4418,-0.4417,-0.4417,-0.4318,-0.4316,0,0,0,0,0,0,-0.4291,-0.4297,-0.4302,-0.4304,-0.4319,-0.4341,-0.4345,-0.4343,-0.437,-0.4376,-0.4374,-0.4379,-0.4401,-0.4402,-0.4402,-0.4349,-0.4418,-0.4417,-0.4417,-0.432,-0.4317,-0.4315,0,0,0,0,0,0,-0.4291,-0.4291,-0.43,-0.4302,-0.4304,-0.4338,-0.4336,-0.4343,-0.4344,-0.4375,-0.4382,-0.4368,-0.4402,-0.4403,-0.4381,-0.4351,-0.4417,-0.4416,-0.4323,-0.4319,-0.4316,-0.4244,0,0,0,0,0,0,-0.4291,-0.4291,-0.4275,-0.4301,-0.4304,-0.428,-0.4334,-0.4342,-0.4343,-0.4349,-0.4371,-0.4377,-0.4404,-0.4382,-0.4381,-0.4351,-0.4416,-0.4325,-0.4321,-0.4317,-0.4249,-0.4238,-0.4229,0,0,0,0,0,-0.429,-0.4253,-0.4274,-0.4274,-0.4285,-0.4278,-0.4279,-0.4312,-0.434,-0.4323,-0.4343,-0.4376,-0.4355,-0.4379,-0.4378,-0.4348,-0.4327,-0.4322,-0.4317,-0.4253,-0.424,-0.4229,0,0,0,0,0,0,-0.4223,-0.4258,-0.428,-0.4251,-0.4261,-0.4289,-0.4269,-0.4298,-0.4299,-0.4305,-0.4345,-0.435,-0.4321,-0.4333,-0.4359,-0.4305,-0.4346,-0.4341,-0.4298,-0.4286,-0.4276,-0.4273,-0.4415,0,0,0,0,0,-0.4204,-0.4197,-0.4227,-0.4198,-0.4202,-0.4235,-0.4233,-0.4257,-0.4269,-0.4273,-0.4291,-0.43,-0.4296,-0.4292,-0.429,-0.4251,-0.4256,-0.423,-0.422,-0.4212,-0.4206,-0.4184,-0.4172,-0.4298,-0.4299,-0.4299,0,0,-0.4166,-0.4185,-0.4177,-0.4185,-0.4196,-0.4185,-0.4238,-0.4225,-0.4217,-0.4271,-0.4251,-0.4264,-0.4277,-0.4246,-0.4233,-0.4255,-0.4173,-0.4206,-0.4199,-0.4198,-0.4178,-0.4166,-0.4155,-0.4295,-0.4296,-0.4296,0,0,-0.4091,-0.4105,-0.4081,-0.4091,-0.4106,-0.4128,-0.4122,-0.4145,-0.4156,-0.4137,-0.4176,-0.4167,-0.4159,-0.4165,-0.4168,-0.4093,-0.4122,-0.4091,-0.4039,-0.4017,-0.4007,-0.3999,-0.3969,-0.3959,-0.4086,-0.4086,-0.4086,0,-0.4042,-0.4029,-0.4066,-0.405,-0.4051,-0.4099,-0.4074,-0.4081,-0.4095,-0.4094,-0.4118,-0.4107,-0.412,-0.4089,-0.4071,-0.4072,-0.4065,-0.4088,-0.4006,-0.3998,-0.399,-0.3963,-0.3952,-0.4082,-0.4082,-0.4083,-0.4083,0,-0.3966,-0.3956,-0.3935,-0.3946,-0.3945,-0.3925,-0.3957,-0.3952,-0.3975,-0.3994,-0.3972,-0.3988,-0.3989,-0.3984,-0.4008,-0.3956,-0.3969,-0.3999,-0.4041,-0.3973,-0.3948,-0.3938,-0.4076,-0.4077,-0.4078,-0.4079,0,0,-0.3849,-0.388,-0.3871,-0.3875,-0.3895,-0.3888,-0.3869,-0.387,-0.3863,-0.387,-0.3854,-0.3845,-0.3872,-0.3875,-0.3899,-0.388,-0.3817,-0.3913,-0.3914,-0.3892,-0.3758,-0.3734,-0.3721,-0.3837,-0.3835,-0.3834,-0.3756,0,-0.3776,-0.3746,-0.3778,-0.374,-0.373,-0.3775,-0.3758,-0.3768,-0.3784,-0.3777,-0.3795,-0.3787,-0.3826,-0.3827,-0.381,-0.3828,-0.379,-0.3835,-0.382,-0.3819,-0.3813,-0.3708,-0.3683,-0.3609,-0.3747,-0.3745,-0.3744,0,-0.3688,-0.369,-0.3652,-0.3672,-0.3669,-0.3653,-0.3655,-0.3648,-0.3659,-0.3672,-0.3674,-0.3704,-0.3685,-0.3727,-0.37,-0.373,-0.3726,-0.3734,-0.3731,-0.373,-0.3776,-0.3701,-0.3586,-0.3574,-0.3729,-0.3731,-0.3732,0,-0.3603,-0.3597,-0.3572,-0.3575,-0.3599,-0.3586,-0.3595,-0.3608,-0.3606,-0.3607,-0.3606,-0.3605,-0.3604,-0.3602,-0.363,-0.3659,-0.3599,-0.3644,-0.3607,-0.3606,-0.3591,-0.3591,-0.3471,-0.3592,-0.3592,-0.3592,-0.3593,0,-0.3517,-0.3491,-0.3534,-0.3518,-0.349,-0.3526,-0.3496,-0.351,-0.3521,-0.3508,-0.3548,-0.3534,-0.3573,-0.3563,-0.3585,-0.3558,-0.3558,-0.3566,-0.3572,-0.3562,-0.356,-0.3558,-0.3563,-0.359,-0.359,-0.3591,-0.3591,0,-0.3417,-0.3445,-0.342,-0.3444,-0.345,-0.3427,-0.3447,-0.3433,-0.3452,-0.3434,-0.3432,-0.3462,-0.3452,-0.348,-0.3475,-0.349,-0.345,-0.3465,-0.3446,-0.3449,-0.341,-0.3412,-0.3282,-0.3266,-0.34,-0.3398,-0.3397,0,-0.3359,-0.334,-0.3361,-0.3355,-0.3362,-0.3353,-0.335,-0.3385,-0.338,-0.339,-0.3374,-0.3368,-0.3364,-0.3347,-0.3367,-0.3363,-0.3377,-0.3331,-0.3376,-0.3365,-0.3373,-0.3372,-0.3369,-0.3321,-0.332,-0.3318,-0.3317,0,-0.3253,-0.3267,-0.3262,-0.3262,-0.3257,-0.3259,-0.3263,-0.3255,-0.3292,-0.3285,-0.3276,-0.3273,-0.3267,-0.326,-0.3259,-0.3268,-0.3297,-0.3303,-0.3294,-0.3282,-0.327,-0.3273,-0.3418,-0.3306,-0.3307,-0.3308,-0.3308,-0.3309,-0.317,-0.3154,-0.3166,-0.3159,-0.3165,-0.3167,-0.3155,-0.3172,-0.3165,-0.3163,-0.3184,-0.3169,-0.3179,-0.3182,-0.3187,-0.3175,-0.3195,-0.3183,-0.3179,-0.3175,-0.3167,-0.3274,-0.3175,-0.3176,-0.3176,-0.3176,-0.3177,0,-0.3064,-0.3073,-0.3066,-0.307,-0.3063,-0.3093,-0.3099,-0.3091,-0.3078,-0.3085,-0.308,-0.3068,-0.306,-0.308,-0.3075,-0.3061,-0.3074,-0.3058,-0.3058,-0.3059,-0.315,-0.3157,-0.3048,-0.3048,-0.3048,-0.3048,-0.3048,-0.3048,-0.3007,-0.2981,-0.2996,-0.2973,-0.2983,-0.2969,-0.2969,-0.297,-0.2976,-0.296,-0.2954,-0.2967,-0.2978,-0.2974,-0.2968,-0.2973,-0.2968,-0.2947,-0.2957,-0.3041,-0.3053,-0.3065,-0.3072,-0.2946,-0.2946,-0.2867,-0.2866,-0.2866]}]]